Starlink 33669

operational
NORAD ID: 63283 Int'l Des: 2025-053 Owner: SPXS Country: US Constellation: starlink
LEOCIRCULAR

关于 Starlink 33669

正在加载描述...

实时位置

正在加载3D地球...

即将过境

高度历史

Altitude vs Time

uPlot chart will show altitude changes over time

两行轨道根数

1 63283U 25053U 25260.05921014 .00035639 00000-0 12985-2 0 9997
2 63283 42.9994 141.9432 0001074 278.7564 81.3166 15.27575979 29649
Epoch: Sep 17, 2025 • Age: 30 hours

当前状态

高度 482.7 km
速度 7.63 km/s
星下点 -2.91°S, 26.09°E
发射日期 Mar 15, 2025
运行时间 0.5 years
类型 internet

技术详情

分类 Payload
质量 575.00 kg
干质量 530.00 kg
总质量 575.00 kg
长度 0.30 m
直径 4.10 m
跨度 29.00 m
形状 Box + pan
制造商 SPXS
平台类型 Starlink V2MO
阶段状态 In Orbit
所有者/国家 SPXS/US

大型星座

Loading constellations...